[[{"header":{"parameterUnit":"m.s-1","parameterCategory":1,"la1":30.2991,"la2":30.254,"lo1":-89.0895,"lo2":-89.0444,"dy":0.0017,"dx":0.0017,"nx":28,"ny":28,"refTime":"2025-08-15T21:00:00:Z","depth":0,"parameterNumber":2,"parameterNumberName":"U-component_of_WINDS"},"data":[0,0,0,0,0,0,0,0,0,0,0,0,0,0,0,0,0,0,0,0,0,0,0,0,0,0,0,0,0,0,0,0,0,0,0,0,0,0,0,0,0,0,0,0,0,0,0,0,0,0,0,0,0,0,0,0,0,0,0.8905,0.8907,0,0.9061,0.9062,0.9064,0.9148,0.9148,0.9148,0.9149,0.9304,0.9308,0.9312,0,0,0,0,0,0,0,0,0,0,0,0,0,0.8675,0.8679,0.8905,0.8907,0.8909,0.906,0.9062,0.9065,0.9148,0.9148,0.9149,0.9149,0.9303,0.9308,0.9312,0,0,0,0,0,0,0,0,0,0,0,0,0,0.8797,0.868,0.8905,0.8969,0.8976,0.906,0.9063,0.9065,0.9148,0.9148,0.9149,0.9149,0.9301,0.9307,0.9313,0.9344,0,0,0.9331,0.9334,0,0,0,0,0,0,0,0,0.879,0.8805,0.8958,0.8965,0.8973,0.9085,0.9039,0.9158,0.9148,0.9083,0.9149,0.9149,0.9231,0.9243,0.9271,0.9351,0.9358,0.9332,0.9335,0.9338,0.934,0,0,0,0,0,0,0,0.8782,0.8799,0.8967,0.896,0.8969,0.8988,0.9006,0.9062,0.9153,0.9088,0.9095,0.9112,0.9235,0.9265,0.9275,0.936,0.9332,0.9337,0.9341,0.9343,0.947,0.9469,0,0,0,0,0,0,0.8763,0.8792,0.8962,0.8971,0.8881,0.8992,0.9012,0.9049,0.9153,0.9169,0.9112,0.9116,0.9255,0.9268,0.9281,0.9322,0.9338,0.9343,0.9347,0.947,0.947,0.9469,0,0,0,0,0,0,0.8758,0.8778,0.8955,0.8883,0.8907,0.8996,0.9037,0.9052,0.9082,0.9171,0.9187,0.9126,0.9256,0.9273,0.9327,0.9329,0.9346,0.9352,0.947,0.947,0.9469,0.9405,0,0,0,0,0,0,0.8751,0.8775,0.879,0.8883,0.8911,0.9,0.9037,0.9055,0.9092,0.9099,0.9188,0.9203,0.9257,0.9318,0.9333,0.9337,0.9356,0.947,0.947,0.9469,0.9408,0.9403,0.9399,0,0,0,0,0,0.8743,0.8765,0.879,0.881,0.8931,0.9,0.9016,0.9079,0.9092,0.9106,0.9162,0.92,0.9326,0.9323,0.9341,0.9347,0.947,0.947,0.947,0.941,0.9404,0.9399,0,0,0,0,0,0,0.8669,0.8779,0.8807,0.8861,0.8921,0.9014,0.9034,0.9071,0.9127,0.9131,0.9205,0.9224,0.9271,0.9314,0.9309,0.938,0.9402,0.9405,0.935,0.9346,0.9341,0.933,0.9361,0,0,0,0,0,0.8659,0.8708,0.8801,0.8839,0.8868,0.8945,0.8978,0.9021,0.9085,0.9111,0.9171,0.9231,0.9284,0.9317,0.9371,0.9414,0.9433,0.9427,0.9422,0.9418,0.942,0.9443,0.9441,0.9468,0.9468,0.9468,0,0,0.8639,0.8705,0.8732,0.8826,0.8877,0.8924,0.8966,0.9015,0.905,0.9118,0.9173,0.9219,0.929,0.9338,0.9363,0.9376,0.9416,0.9418,0.9414,0.9418,0.9443,0.944,0.9438,0.9468,0.9468,0.9468,0,0,0.8627,0.8683,0.872,0.877,0.8847,0.8898,0.8906,0.8994,0.9027,0.9084,0.9135,0.9176,0.9267,0.9315,0.9351,0.9353,0.9389,0.9368,0.9345,0.9367,0.9364,0.9363,0.9362,0.9361,0.9369,0.9369,0.9369,0,0.8592,0.8667,0.8734,0.8779,0.8818,0.8881,0.8918,0.8963,0.9053,0.9077,0.9091,0.9204,0.9256,0.9315,0.9315,0.9343,0.9353,0.9358,0.936,0.9359,0.9358,0.9358,0.9358,0.9366,0.9366,0.9367,0.9367,0,0.862,0.867,0.869,0.8776,0.8817,0.8858,0.8928,0.8961,0.8999,0.9048,0.9102,0.9168,0.9234,0.9251,0.929,0.9315,0.9321,0.9346,0.9369,0.9351,0.9352,0.9353,0.9361,0.9363,0.9364,0.9364,0,0,0.8568,0.8688,0.8694,0.8732,0.8821,0.886,0.8902,0.8968,0.8993,0.9052,0.9088,0.9161,0.9184,0.9225,0.9268,0.9288,0.9282,0.9311,0.9313,0.9302,0.9312,0.9292,0.9291,0.9307,0.9307,0.9307,0.9305,0,0.8568,0.8648,0.8707,0.8764,0.881,0.8869,0.8905,0.8961,0.9007,0.9051,0.9101,0.9151,0.9179,0.9203,0.9225,0.9278,0.9285,0.9279,0.9339,0.934,0.9319,0.9292,0.9272,0.9267,0.9306,0.9306,0.9307,0,0.8579,0.8636,0.8697,0.8777,0.8799,0.883,0.8894,0.8936,0.9,0.9031,0.9075,0.9119,0.9164,0.9182,0.9243,0.9237,0.9264,0.9294,0.9295,0.9303,0.9322,0.9298,0.9267,0.9266,0.9308,0.9308,0.9308,0,0.8533,0.8625,0.8673,0.8704,0.8799,0.882,0.886,0.8925,0.8959,0.9014,0.9036,0.9095,0.9127,0.917,0.9228,0.9236,0.9281,0.9306,0.9307,0.9306,0.9315,0.9313,0.9287,0.9333,0.9333,0.9333,0.9333,0,0.8527,0.8561,0.8653,0.8682,0.8722,0.8788,0.8825,0.887,0.8926,0.8963,0.9018,0.9051,0.9126,0.9167,0.9213,0.9254,0.9269,0.9294,0.9305,0.9289,0.9285,0.9308,0.9309,0.9333,0.9333,0.9333,0.9333,0,0.8483,0.8547,0.8602,0.8687,0.8709,0.8734,0.8806,0.8835,0.8883,0.8929,0.8943,0.9017,0.9069,0.9131,0.9203,0.9233,0.927,0.9288,0.9248,0.9255,0.9253,0.9251,0.924,0.924,0.9286,0.9285,0.9285,0,0.8475,0.8503,0.8591,0.862,0.8659,0.8705,0.874,0.8805,0.884,0.8912,0.8932,0.8988,0.9036,0.9115,0.9174,0.9228,0.9247,0.9239,0.9255,0.9237,0.9245,0.9242,0.9244,0.9234,0.9234,0.9233,0.9232,0,0.8453,0.8482,0.8532,0.8591,0.8632,0.8681,0.8733,0.8753,0.8828,0.8863,0.8917,0.8954,0.9026,0.908,0.9141,0.918,0.9218,0.9226,0.9229,0.9213,0.9188,0.92,0.9235,0.9227,0.9227,0.9228,0.9228,0.9228,0.8427,0.8453,0.8518,0.8571,0.8616,0.8662,0.8693,0.8744,0.879,0.8854,0.8889,0.8941,0.9001,0.9087,0.9124,0.9164,0.9178,0.9182,0.9184,0.9183,0.9178,0.9182,0.9176,0.9176,0.9176,0.9176,0.9176,0,0.8407,0.8451,0.8498,0.8568,0.8608,0.8641,0.8698,0.8729,0.8775,0.8828,0.8873,0.8933,0.8984,0.9046,0.9101,0.912,0.9139,0.9133,0.9131,0.9139,0.9163,0.9155,0.9117,0.9117,0.9117,0.9117,0.9117,0.9117,0.8401,0.8447,0.8483,0.855,0.8594,0.8645,0.8675,0.8717,0.8759,0.8824,0.8867,0.8907,0.8962,0.9021,0.9068,0.9085,0.9102,0.909,0.9112,0.9133,0.9138,0.9143,0.9135,0.9094,0.9094,0.9084,0.9084,0.9084]},{"header":{"parameterUnit":"m.s-1","parameterCategory":1,"la1":30.2991,"la2":30.254,"lo1":-89.0895,"lo2":-89.0444,"dy":0.0017,"dx":0.0017,"nx":28,"ny":28,"refTime":"2025-08-15T21:00:00:Z","depth":0,"parameterNumber":3,"parameterNumberName":"V-component_of_WINDS"},"data":[0,0,0,0,0,0,0,0,0,0,0,0,0,0,0,0,0,0,0,0,0,0,0,0,0,0,0,0,0,0,0,0,0,0,0,0,0,0,0,0,0,0,0,0,0,0,0,0,0,0,0,0,0,0,0,0,0,0,3.0702,3.0702,0,3.0758,3.0759,3.076,3.0776,3.0775,3.0775,3.0775,3.0828,3.0829,3.0831,0,0,0,0,0,0,0,0,0,0,0,0,0,3.0602,3.0604,3.0702,3.0702,3.0703,3.0758,3.0759,3.076,3.0776,3.0775,3.0775,3.0775,3.0827,3.0829,3.0831,0,0,0,0,0,0,0,0,0,0,0,0,0,3.065,3.0604,3.0702,3.0718,3.072,3.0758,3.0759,3.076,3.0776,3.0775,3.0775,3.0775,3.0827,3.0829,3.0832,3.0856,0,0,3.0839,3.084,0,0,0,0,0,0,0,0,3.0648,3.0654,3.0715,3.0717,3.0719,3.076,3.0743,3.0792,3.0776,3.0754,3.0775,3.0774,3.0805,3.0809,3.0821,3.0859,3.0861,3.084,3.0841,3.0842,3.0843,0,0,0,0,0,0,0,3.0644,3.0652,3.0724,3.0716,3.0718,3.0721,3.0727,3.0753,3.0781,3.0756,3.0758,3.0764,3.0806,3.0818,3.0822,3.0862,3.0839,3.0842,3.0843,3.0844,3.0921,3.0921,0,0,0,0,0,0,3.0639,3.0649,3.0722,3.0726,3.0682,3.0723,3.073,3.0747,3.0781,3.0786,3.0765,3.0765,3.0814,3.0819,3.0824,3.0854,3.0842,3.0845,3.0846,3.092,3.0921,3.0921,0,0,0,0,0,0,3.0637,3.0645,3.072,3.0688,3.0697,3.0725,3.0744,3.0748,3.0761,3.0788,3.0792,3.0772,3.0814,3.0821,3.0848,3.0856,3.0846,3.0848,3.092,3.092,3.0921,3.0915,0,0,0,0,0,0,3.0634,3.0644,3.0655,3.0688,3.0699,3.0745,3.0745,3.075,3.0766,3.0766,3.0796,3.08,3.0814,3.0844,3.0851,3.086,3.085,3.0919,3.092,3.0921,3.0915,3.0916,3.0916,0,0,0,0,0,3.063,3.0651,3.0656,3.0665,3.0714,3.0745,3.0751,3.0768,3.0766,3.0776,3.0794,3.0799,3.0855,3.0847,3.0854,3.0864,3.0918,3.092,3.0921,3.0914,3.0916,3.0916,0,0,0,0,0,0,3.0617,3.0655,3.0661,3.0694,3.0716,3.0748,3.0761,3.0769,3.0791,3.0791,3.081,3.0816,3.0842,3.0856,3.0847,3.0889,3.0886,3.0889,3.0879,3.088,3.0881,3.0877,3.0852,0,0,0,0,0,3.0618,3.0642,3.0674,3.0699,3.071,3.0734,3.0748,3.0759,3.0783,3.0792,3.0811,3.0832,3.0854,3.0868,3.089,3.0917,3.0923,3.0927,3.0928,3.0929,3.093,3.0944,3.0946,3.0925,3.0925,3.0925,0,0,3.062,3.0644,3.0658,3.0697,3.0715,3.0738,3.0741,3.0766,3.0782,3.0795,3.0822,3.0837,3.0861,3.0889,3.0902,3.0901,3.0938,3.093,3.093,3.0932,3.0946,3.0948,3.095,3.0926,3.0926,3.0926,0,0,3.0635,3.0656,3.0679,3.0698,3.0727,3.0743,3.0748,3.0778,3.0789,3.0817,3.0827,3.0846,3.0884,3.0901,3.0914,3.0935,3.094,3.0941,3.0945,3.0959,3.096,3.0962,3.0968,3.097,3.0943,3.0943,3.0943,0,3.0633,3.067,3.0689,3.0713,3.0729,3.0743,3.0765,3.0782,3.0816,3.0826,3.0825,3.0872,3.089,3.0921,3.0926,3.0937,3.0942,3.0938,3.0959,3.0961,3.0962,3.0968,3.0971,3.0943,3.0943,3.0943,3.0943,0,3.0665,3.069,3.0705,3.0739,3.0756,3.0779,3.08,3.0816,3.0825,3.084,3.0867,3.0889,3.0915,3.0923,3.0932,3.0955,3.0953,3.0956,3.0953,3.0964,3.097,3.0973,3.0943,3.0943,3.0943,3.0943,0,0,3.0674,3.0718,3.0723,3.0738,3.0771,3.079,3.0812,3.0839,3.0851,3.0873,3.0891,3.0923,3.0925,3.094,3.0951,3.0963,3.0977,3.0964,3.0964,3.0964,3.1001,3.0999,3.1002,3.0981,3.0981,3.0982,3.0999,0,3.0692,3.0735,3.0753,3.0786,3.0809,3.0822,3.0841,3.0862,3.0877,3.0896,3.0911,3.0933,3.0935,3.0944,3.0956,3.0972,3.0984,3.0971,3.0996,3.0997,3.0989,3.1005,3.1003,3.1018,3.1002,3.1002,3.1002,0,3.072,3.0744,3.078,3.0809,3.0819,3.0836,3.0862,3.0881,3.0904,3.0914,3.0931,3.0941,3.0963,3.096,3.0989,3.098,3.0991,3.1001,3.1002,3.1004,3.1,3.1007,3.1024,3.1026,3.1006,3.1006,3.1006,0,3.0721,3.0762,3.0789,3.0802,3.0837,3.0848,3.0863,3.0886,3.0901,3.0922,3.0932,3.0955,3.0968,3.0985,3.1,3.0997,3.1028,3.1026,3.1035,3.1035,3.1041,3.104,3.1058,3.1049,3.1049,3.1049,3.1049,0,3.0739,3.076,3.079,3.0806,3.083,3.0849,3.0872,3.0887,3.0907,3.0925,3.0938,3.0954,3.0974,3.0993,3.1005,3.1027,3.1033,3.104,3.1042,3.1038,3.1037,3.1045,3.1044,3.1049,3.1049,3.1049,3.1049,0,3.0744,3.0765,3.0795,3.0826,3.0834,3.085,3.0876,3.0891,3.0906,3.0929,3.0935,3.0958,3.098,3.0998,3.1026,3.1034,3.1057,3.1061,3.105,3.1051,3.1059,3.1058,3.1083,3.1087,3.1075,3.1075,3.1075,0,3.0754,3.0771,3.0804,3.0818,3.0833,3.0855,3.087,3.089,3.0905,3.0932,3.0944,3.0967,3.0987,3.1022,3.104,3.1062,3.1065,3.1072,3.1068,3.1063,3.1064,3.1063,3.1064,3.1073,3.1073,3.1073,3.1073,0,3.077,3.0779,3.0802,3.0827,3.0846,3.0867,3.0888,3.0898,3.092,3.0936,3.096,3.0975,3.1005,3.1028,3.1051,3.1065,3.1072,3.1074,3.1077,3.1073,3.1065,3.1068,3.105,3.1073,3.1073,3.1073,3.1073,3.1073,3.0777,3.0792,3.0818,3.0842,3.086,3.0879,3.0895,3.0912,3.0933,3.096,3.0969,3.0993,3.1015,3.1048,3.1061,3.1079,3.1079,3.1084,3.1085,3.1085,3.1085,3.1063,3.1083,3.1083,3.1083,3.1083,3.1083,0,3.0792,3.0809,3.0831,3.0861,3.0879,3.0886,3.091,3.0924,3.0946,3.0966,3.0986,3.1012,3.1034,3.1054,3.1077,3.1087,3.1091,3.1092,3.1091,3.1094,3.1083,3.1078,3.1089,3.1089,3.1089,3.1089,3.1089,3.1089,3.0802,3.0828,3.084,3.0874,3.0891,3.0916,3.0928,3.0945,3.0962,3.0991,3.101,3.1024,3.1043,3.1067,3.1087,3.1092,3.1099,3.11,3.1105,3.1095,3.1095,3.1094,3.1089,3.1101,3.1101,3.1114,3.1114,3.1114]}]]